This demonstration page uses our WeatherBlox Daily Observations layout. Learn more.

Left ArrowRight Arrow

Hourly Observations for December 11, 2015

Temp ( °F °C ) Dew Point ( °F °C ) Humidity (%) Winds ( mph kmh ) Pressure ( in mb ) Visibility ( mi km ) Precip ( " mm )
12:15 am 00:15 Clear 50 10 46 8 88 88 S 6 9 29.91 1013 10 16 0.00 0.00
12:35 am 00:35 Clear 50 10 46 8 88 88 SSE 6 9 29.91 1013 10 16 0.00 0.00
12:55 am 00:55 Clear 45 7 45 7 100 100 Calm 29.94 1014 10 16 0.00 0.00
1:15 am 01:15 Clear 45 7 45 7 100 100 Calm 29.94 1014 10 16 0.00 0.00
1:35 am 01:35 Clear 45 7 43 6 93 93 Calm 29.91 1013 10 16 0.00 0.00
1:55 am 01:55 Clear 43 6 43 6 100 100 Calm 29.94 1014 10 16 0.00 0.00
2:15 am 02:15 Clear 43 6 43 6 100 100 Calm 29.91 1013 7 11 0.00 0.00
2:35 am 02:35 Clear 43 6 43 6 100 100 Calm 29.91 1013 10 16 0.00 0.00
2:55 am 02:55 Clear 43 6 43 6 100 100 SSE 3 6 29.91 1013 10 16 0.00 0.00
3:15 am 03:15 Clear with Mist and Fog 39 4 39 4 100 100 Calm 29.91 1013 5 8 0.00 0.00
3:35 am 03:35 Clear with Mist and Fog 41 5 41 5 100 100 Calm 29.91 1013 5 8 0.00 0.00
3:55 am 03:55 Clear with Mist and Fog 41 5 41 5 100 100 Calm 29.91 1013 5 8 0.00 0.00
4:15 am 04:15 Clear 41 5 41 5 100 100 Calm 29.91 1013 7 11 0.00 0.00
4:35 am 04:35 Clear with Mist and Fog 37 3 37 3 100 100 Calm 29.91 1013 4 6 0.00 0.00
4:55 am 04:55 Clear 37 3 37 3 100 100 Calm 29.91 1013 7 11 0.00 0.00
5:15 am 05:15 Clear 37 3 37 3 100 100 Calm 29.94 1014 7 11 0.00 0.00
5:35 am 05:35 Clear with Mist and Fog 39 4 39 4 100 100 Calm 29.94 1014 5 8 0.00 0.00
5:55 am 05:55 Clear with Mist and Fog 37 3 37 3 100 100 Calm 29.94 1014 4 6 0.00 0.00
6:15 am 06:15 Clear 37 3 37 3 100 100 Calm 29.94 1014 10 16 0.00 0.00
6:35 am 06:35 Partly Cloudy with Mist and Fog 37 3 37 3 100 100 Calm 29.94 1014 5 8 0.00 0.00
6:55 am 06:55 Clear with Mist and Fog 37 3 37 3 100 100 Calm 29.94 1014 5 8 0.00 0.00
7:15 am 07:15 Partly Cloudy with Mist and Fog 36 2 36 2 100 100 Calm 29.94 1014 5 8 0.00 0.00
7:35 am 07:35 Partly Cloudy with Mist and Fog 37 3 37 3 100 100 Calm 29.97 1015 4 6 0.00 0.00
7:55 am 07:55 Sunny with Mist and Fog 39 4 39 4 100 100 Calm 29.97 1015 4 6 0.00 0.00
8:15 am 08:15 Sunny with Mist and Fog 43 6 43 6 100 100 Calm 29.97 1015 4 6 0.00 0.00
8:35 am 08:35 Sunny with Mist and Fog 43 6 43 6 100 100 Calm 29.97 1015 5 8 0.00 0.00
8:55 am 08:55 Sunny 45 7 45 7 100 100 Calm 30.00 1016 7 11 0.00 0.00
9:15 am 09:15 Sunny with Mist and Fog 45 7 45 7 100 100 Calm 30.00 1016 5 8 0.00 0.00
9:35 am 09:35 Sunny 46 8 46 8 100 100 Calm 30.00 1016 7 11 0.00 0.00
9:55 am 09:55 Sunny 46 8 46 8 100 100 Calm 30.00 1016 7 11 0.00 0.00
10:15 am 10:15 Mostly Cloudy 48 9 46 8 94 94 Calm 30.00 1016 7 11 0.00 0.00
10:35 am 10:35 Mostly Cloudy 50 10 48 9 94 94 Calm 29.97 1015 10 16 0.00 0.00
10:55 am 10:55 Mostly Cloudy 52 11 50 10 94 94 Calm 29.97 1015 10 16 0.00 0.00
11:15 am 11:15 Partly Cloudy 54 12 50 10 88 88 Calm 29.97 1015 10 16 0.00 0.00
11:35 am 11:35 Partly Cloudy 57 14 50 10 77 77 SSW 8 13 29.97 1015 10 16 0.00 0.00
11:55 am 11:55 Partly Cloudy 59 15 50 10 72 72 S 9 15 29.97 1015 10 16 0.00 0.00
12:15 pm 12:15 Sunny 59 15 50 10 72 72 S 9 15 29.94 1014 10 16 0.00 0.00
12:35 pm 12:35 Sunny 59 15 52 11 77 77 S 6 9 29.94 1014 10 16 0.00 0.00
12:55 pm 12:55 Sunny 61 16 52 11 72 72 SSE 5 7 29.94 1014 10 16 0.00 0.00
1:15 pm 13:15 Sunny 61 16 52 11 72 72 SSE 3 6 29.94 1014 10 16 0.00 0.00
1:35 pm 13:35 Sunny 61 16 52 11 72 72 SSW 8 13 29.94 1014 10 16 0.00 0.00
1:55 pm 13:55 Sunny 63 17 52 11 68 68 S 6 9 29.94 1014 10 16 0.00 0.00
2:15 pm 14:15 Sunny 63 17 52 11 68 68 S 8 13 29.94 1014 10 16 0.00 0.00
2:35 pm 14:35 Sunny 63 17 52 11 68 68 S 5 7 29.94 1014 10 16 0.00 0.00
2:55 pm 14:55 Sunny 63 17 52 11 68 68 S 6 9 29.94 1014 10 16 0.00 0.00
3:15 pm 15:15 Sunny 64 18 52 11 64 64 SSW 9 15 29.94 1014 10 16 0.00 0.00
3:35 pm 15:35 Sunny 64 18 54 12 68 68 SSW 3 6 29.94 1014 10 16 0.00 0.00
3:55 pm 15:55 Sunny 64 18 52 11 64 64 Calm 29.94 1014 10 16 0.00 0.00
4:15 pm 16:15 Sunny 63 17 54 12 73 73 Calm 29.94 1014 10 16 0.00 0.00
4:35 pm 16:35 Sunny 61 16 54 12 77 77 Calm 29.97 1015 10 16 0.00 0.00
4:55 pm 16:55 Clear 59 15 54 12 82 82 Calm 29.97 1015 10 16 0.00 0.00
5:15 pm 17:15 Clear 59 15 54 12 82 82 Calm 29.97 1015 10 16 0.00 0.00
5:35 pm 17:35 Clear 55 13 52 11 88 88 Calm 30.00 1016 10 16 0.00 0.00
5:55 pm 17:55 Clear 55 13 52 11 88 88 Calm 30.00 1016 10 16 0.00 0.00
6:15 pm 18:15 Clear 54 12 52 11 94 94 Calm 30.00 1016 10 16 0.00 0.00
6:35 pm 18:35 Clear 54 12 52 11 94 94 Calm 30.00 1016 10 16 0.00 0.00
6:55 pm 18:55 Clear 52 11 52 11 100 100 Calm 30.00 1016 10 16 0.00 0.00
7:15 pm 19:15 Clear 52 11 50 10 94 94 Calm 30.03 1017 10 16 0.00 0.00
7:35 pm 19:35 Clear 52 11 50 10 94 94 N 3 6 30.03 1017 10 16 0.00 0.00
7:55 pm 19:55 Clear 50 10 50 10 100 100 N 3 6 30.03 1017 10 16 0.00 0.00
8:15 pm 20:15 Clear 48 9 48 9 100 100 N 5 7 30.06 1018 10 16 0.00 0.00
8:35 pm 20:35 Clear 50 10 50 10 100 100 N 3 6 30.03 1017 10 16 0.00 0.00
8:55 pm 20:55 Clear 52 11 52 11 100 100 N 6 9 30.03 1017 10 16 0.00 0.00
9:15 pm 21:15 Clear 54 12 50 10 88 88 Calm 30.03 1017 10 16 0.00 0.00
9:35 pm 21:35 Clear 50 10 50 10 100 100 Calm 30.03 1017 7 11 0.00 0.00
9:55 pm 21:55 Clear 46 8 46 8 100 100 WSW 3 6 30.06 1018 10 16 0.00 0.00
10:15 pm 22:15 Clear 46 8 46 8 100 100 Calm 30.09 1019 7 11 0.00 0.00
10:35 pm 22:35 Clear 46 8 46 8 100 100 WSW 3 6 30.09 1019 10 16 0.00 0.00
10:55 pm 22:55 Clear 46 8 46 8 100 100 Calm 30.09 1019 7 11 0.00 0.00
11:15 pm 23:15 Clear 46 8 46 8 100 100 Calm 30.09 1019 7 11 0.00 0.00
11:35 pm 23:35 Clear 46 8 46 8 100 100 Calm 30.09 1019 7 11 0.00 0.00
11:55 pm 23:55 Clear 45 7 45 7 100 100 Calm 30.09 1019 7 11 0.00 0.00

Powered by AerisWeather